User: anonymous   Login
Location: Nebula Knoll Observatory
(43.6666°N, 71.0000°W)
Time: 18:49:48
(UTC-04:00)
Language:

Cosmos 1782 - Orbit

View from above orbital plane
View from above orbital plane
View from above satellite
View from above satellite

Ground track
Ground track

The orbit data is extracted from the following two-line orbital elements,

1 16986U 86074A   14298.11203474  .00004770  00000-0  34799-3 0  8847
2 16986 082.5068 339.5968 0012997 044.9569 315.2707 15.03437260525490
Epoch (UTC): 25 October 2014 02:41:19
Eccentricity: 0.0012997
inclination: 82.5068°
perigee height: 547 km
apogee height: 565 km
right ascension of ascending node: 339.5968°
argument of perigee: 44.9569°
revolutions per day: 15.03437260
mean anomaly at epoch: 315.2707°
orbit number at epoch: 52549

The dashed part of the orbit path shows where the satellite is in the earth's shadow,  

DLR